Regional Weather Roundup
Issued by NWS Goodland, KS

Home | Current Version | Previous Version | Text Only | Print | Product List | Glossary Off
Versions: 1 2 3 4 5 6 7 8 9 10 11 12 13 14 15 16 17 18 19 20 21 22 23 24 25 26 27 28 29 30 31 32 33 34 35 36 37 38 39 40 41 42 43 44 45 46 47 48 49 50

411
ASUS43 KGLD 260859
RWRGLD

GOODLAND FORECAST AREA HOURLY WEATHER ROUNDUP
NATIONAL WEATHER SERVICE GOODLAND KS
300 AM MDT SUN MAR 26 2017

...OFFICIAL OBSERVATIONS...

CITY           SKY/WX    TMP DP  RH WIND       PRES   REMARKS
GOODLAND KS    CLEAR     37  36  96 SE7       29.82F
HILL CITY KS   CLOUDY    41  40  96 E6        29.89F FOG
IMPERIAL NEB   FOG       38  38 100 SE8       29.84F VSB 1/4
MCCOOK NEB     FOG       40  40 100 SE7       29.88F VSB 1/2
AKRON CO       CLOUDY    42  28  57 S13       29.80F
BURLINGTON CO  PTCLDY    39  38  96 SE10      29.81F
LIMON CO       CLOUDY    34  30  85 N5        29.81F
$$

...UNOFFICIAL OBSERVATIONS...

CITY           SKY/WX    TMP DP  RH WIND       PRES   REMARKS
LENORA KS        N/A     39  32  76 CALM        N/A
NORTON KS      CLOUDY    39  36  87 E3        29.88F
SHARON SPRINGS   N/A     36  34  92 S5          N/A
TRENTON NEB      N/A     39  32  76 SE6         N/A
YUMA CO        CLOUDY    37  34  87 S7        29.81F
$$




USA.gov is the U.S. government's official web portal to all federal, state and local government web resources and services.